Location: Sibbertoft
(52.4361°N, 1.0300°W)
Time: 18:50:53
(UTC+01:00)

N. Korean satellite - Visible Passes

Search period start: 19 October 2018 00:00
Search period end: 28 October 2018 23:00
Orbit: 459 x 510 km, 97.2° (Epoch: 19 October)

Date Brightness Start Highest point End Pass type
(mag) Time Alt. Az. Time Alt. Az. Time Alt. Az.
19 Oct 10.0 06:34:11 10° NE 06:36:44 18° E 06:39:15 10° SE visible
19 Oct 7.7 18:47:52 10° S 18:51:31 52° W 18:55:13 10° NNW visible
20 Oct 10.4 20:00:08 10° W 20:01:06 11° W 20:02:03 10° WNW visible
21 Oct 9.8 19:33:43 10° SW 19:36:24 19° W 19:39:06 10° NW visible
22 Oct 9.2 06:53:53 10° NE 06:57:04 27° E 07:00:12 10° SSE visible
22 Oct 8.8 19:08:25 10° SSW 19:11:47 32° W 19:15:11 10° NNW visible
23 Oct 10.0 06:30:07 10° NE 06:32:25 16° E 06:34:42 10° SE visible
23 Oct 7.4 18:43:34 10° S 18:47:15 57° W 18:50:59 10° NNW visible
24 Oct 10.3 19:55:20 10° WSW 19:56:47 12° W 19:58:13 10° WNW visible
25 Oct 9.6 19:29:15 10° SW 19:32:05 20° W 19:34:56 10° NW visible
26 Oct 9.3 06:49:41 10° NE 06:52:44 25° E 06:55:43 10° SSE visible
26 Oct 8.5 19:04:02 10° SSW 19:07:29 34° W 19:10:56 10° NNW visible
27 Oct 10.1 06:26:02 10° NE 06:28:04 14° E 06:30:04 10° ESE visible
27 Oct 7.2 18:39:14 10° S 18:42:57 63° WSW 18:46:40 10° NNW visible
28 Oct 6.6 17:14:47 10° SSE 17:18:30 70° ENE 17:22:14 10° N visible
28 Oct 10.2 18:50:38 10° WSW 18:52:24 13° W 18:54:10 10° WNW visible
